Regional Weather Roundup
Issued by NWS Northern Indiana

Home | Current Version | Previous Version | Graphics & Text | Print | Product List | Glossary On
Versions: 1 2 3 4 5 6 7 8 9 10 11 12 13 14 15 16 17 18 19 20 21 22 23 24 25 26 27 28 29 30 31 32 33 34 35 36 37 38 39 40 41 42 43 44 45 46 47 48 49 50
000
ASUS43 KIWX 051200
RWRIWX

KIWX WEATHER ROUNDUP
NATIONAL WEATHER SERVICE NORTHERN INDIANA
800 AM EDT THU MAY 05 2016

NOTE: "FAIR" INDICATES FEW OR NO CLOUDS BELOW 12,000 FEET WITH NO
SIGNIFICANT WEATHER AND/OR OBSTRUCTIONS TO VISIBILITY.

* THESE STATIONS ARE NOT UNDER NWS QUALITY CONTROL. THEY ALSO MAY NOT
  REPORT WEATHER SUCH AS PRECIPITATION OR FOG.

INZ001>027-051300-
NORTHERN INDIANA

CITY           SKY/WX    TMP DP  RH WIND       PRES   REMARKS
GARY*          CLOUDY    43  43 100 N17       29.94R
SOUTH BEND     CLOUDY    44  42  93 N10       29.88R
6HR MIN TEMP:  41; 6HR MAX TEMP:  44; 6HR PCP:  0.01;

ELKHART*       CLOUDY    45  45 100 N9        29.87R
GOSHEN         CLOUDY    46  42  86 N15       29.85R
6HR MIN TEMP:  43; 6HR MAX TEMP:  47; 6HR PCP:  0.01;

ANGOLA*        CLOUDY    45  45 100 N10       29.83R
FORT WAYNE     CLOUDY    44  41  89 NW5       29.82R
6HR MIN TEMP:  39; 6HR MAX TEMP:  44; 6HR PCP: TRACE;


$$
INZ028>050-051300-
CENTRAL INDIANA

CITY           SKY/WX    TMP DP  RH WIND       PRES   REMARKS
LAFAYETTE      CLOUDY    43  40  89 N12       29.87R
6HR MIN TEMP:  41; 6HR MAX TEMP:  43; 6HR PCP: TRACE;

KOKOMO*        CLOUDY    43  37  81 N7        29.84R
6HR MIN TEMP:  41; 6HR MAX TEMP:  43;

MUNCIE*        CLOUDY    43  39  86 N10       29.82R
6HR MIN TEMP:  41; 6HR MAX TEMP:  43; 6HR PCP: TRACE;

INDIANAPOLIS   PTSUNNY   43  38  82 NE12      29.82R
6HR MIN TEMP:  41; 6HR MAX TEMP:  43; 6HR PCP:  0.01;


$$
MIZ043>046-050>051-056>058-064>065-071>073-077>080-051300-
SOUTHWEST LOWER MICHIGAN

CITY           SKY/WX    TMP DP  RH WIND       PRES   REMARKS
BATTLE CREEK   CLOUDY    45  42  89 N10       29.88R
6HR MIN TEMP:  45; 6HR MAX TEMP:  47;

BENTON HARBOR  CLOUDY    45  40  82 VRB5      29.90R
6HR MIN TEMP:  43; 6HR MAX TEMP:  45;

COLDWATER*     CLOUDY    46  43  91 N9        29.85R
6HR MIN TEMP:  42; 6HR MAX TEMP:  46;

HILLSDALE*     CLOUDY    45  41  87 N13       29.83R
HOLLAND        CLOUDY   N/A N/A N/A N3        29.92R
GRAND RAPIDS   PTSUNNY   45  41  86 N8        29.90R
6HR MIN TEMP:  44; 6HR MAX TEMP:  46;

KALAMAZOO      CLOUDY    46  41  82 N8        29.88R
6HR MIN TEMP:  45; 6HR MAX TEMP:  47; 6HR PCP: TRACE;

STURGIS*       CLOUDY    44  42  92 N14       29.85R
6HR MIN TEMP:  42; 6HR MAX TEMP:  45;

THREE RIVERS*  CLOUDY    46  43  88 N6        29.88R
6HR MIN TEMP:  45; 6HR MAX TEMP:  47;


$$
OHZ001>008-015>018-024>025-051300-
NORTHWEST OHIO

CITY           SKY/WX    TMP DP  RH WIND       PRES   REMARKS
DEFIANCE       CLOUDY    48  43  82 N9        29.81R
6HR MIN TEMP:  42; 6HR MAX TEMP:  48; 6HR PCP: TRACE;

FINDLAY        CLOUDY    45  40  82 NW6       29.78R
6HR MIN TEMP:  43; 6HR MAX TEMP:  45; 6HR PCP:  0.21;

TOLEDO EXPRESS MOSUNNY   45  42  89 N12       29.79R
6HR MIN TEMP:  43; 6HR MAX TEMP:  47; 6HR PCP:  0.01;

TOLEDO METCALF MOSUNNY   49  42  77 N10       29.79R
6HR MIN TEMP:  45; 6HR MAX TEMP:  49; 6HR PCP:  0.03;

LIMA           LGT RAIN  41  40  96 NW8       29.78R FOG
6HR MIN TEMP:  40; 6HR MAX TEMP:  41; 6HR PCP:  0.09;


$$
AND FOR LAKE MICHIGAN COASTAL AND OPEN LAKE BUOY OBSERVATIONS

STATION/POSITION TEMP    WIND        PRES    VSBY  WAVE
                 AIR SEA DIR/SP/G                  HT/PER
                 (F)     (DEG/KT/KT) (MB)    (MI)  (FT/S)
CALUMET HARBOR    41     330/ 15/ 22 1012.8R
MICHIGAN CITY     42     350/ 20/ 23   N/A
BURNS HARBOR      42     360/ 18/ 22 1013.2R
SAINT JOSEPH      44     360/ 12/ 17 1012.2R
SOUTH LAKE BUOY   40 40   20/ 17/ 21 1012.6          6/ 7
4 MI NW BRIDGMAN  44 46                N/A           6/ 7

$$
&&




USA.gov is the U.S. government's official web portal to all federal, state and local government web resources and services.